GW4121 Weather Reports


time (UTC)temp
C
wind
direction
speed
KPH
gust
KPH
rain 1hr
cm
rain 24hr
cm
rain mn
cm
humidity
%
barometer
mb
20260507202504 12 348 0.0 3.2 0.00 0.05 0.03 74 1015.9
20260507202005 12 347 1.6 6.4 0.00 0.05 0.03 72 1015.8
20260507201504 12 342 1.6 6.4 0.00 0.05 0.03 72 1015.7
20260507201215 12 318 1.6 4.8 0.00 0.05 0.03 73 1015.7
20260507200504 12 325 3.2 11.3 0.00 0.05 0.03 71 1015.5
20260507200216 12 327 3.2 11.3 0.00 0.05 0.03 71 1015.4
20260507195504 12 318 3.2 8.0 0.00 0.05 0.03 70 1015.2
20260507195006 12 307 1.6 6.4 0.00 0.05 0.03 70 1015.2
20260507194506 13 319 3.2 8.0 0.00 0.05 0.03 69 1015.1
20260507194004 13 327 3.2 8.0 0.00 0.05 0.03 69 1014.9
20260507193716 13 331 3.2 8.0 0.00 0.05 0.03 68 1014.8
20260507193004 13 344 1.6 9.7 0.00 0.05 0.03 66 1014.7
20260507192717 14 334 4.8 9.7 0.00 0.05 0.03 66 1014.6
20260507192004 15 324 6.4 11.3 0.00 0.08 0.03 64 1014.3
20260507191504 15 296 4.8 11.3 0.00 0.08 0.03 62 1014.1
20260507191004 15 292 3.2 11.3 0.00 0.08 0.03 60 1014.0
20260507190504 15 300 4.8 12.9 0.00 0.08 0.03 59 1013.9
20260507190217 16 279 4.8 16.1 0.00 0.08 0.03 58 1013.9
20260507185507 16 275 4.8 16.1 0.00 0.08 0.03 58 1013.7
20260507185004 16 270 4.8 17.7 0.00 0.08 0.03 58 1013.4
20260507184504 16 281 6.4 20.9 0.00 0.08 0.03 59 1013.3
20260507184004 16 279 8.0 20.9 0.00 0.08 0.03 58 1013.2
20260507183504 16 249 9.7 24.1 0.00 0.08 0.03 58 1013.0
20260507183220 16 245 11.3 29.0 0.00 0.08 0.03 58 1013.0
20260507182505 16 249 12.9 29.0 0.00 0.08 0.03 60 1012.9
20260507182004 16 246 12.9 30.6 0.00 0.08 0.03 63 1012.8
20260507181504 16 245 14.5 33.8 0.00 0.08 0.03 65 1012.8
20260507181217 16 246 14.5 33.8 0.00 0.08 0.03 66 1012.8
20260507180504 16 245 12.9 29.0 0.00 0.08 0.03 67 1012.8
20260507180006 17 247 12.9 30.6 0.00 0.08 0.03 67 1012.7
20260507175504 17 246 12.9 30.6 0.00 0.08 0.03 67 1012.7
20260507175006 17 245 12.9 27.4 0.00 0.08 0.03 67 1012.6
20260507174504 17 247 12.9 27.4 0.00 0.08 0.03 67 1012.4
20260507174004 17 258 12.9 27.4 0.00 0.08 0.03 66 1012.4
20260507173504 17 268 11.3 27.4 0.00 0.08 0.03 65 1012.5
20260507173005 17 278 9.7 30.6 0.00 0.08 0.03 66 1012.4
20260507172504 17 263 11.3 32.2 0.00 0.08 0.03 65 1012.3
20260507172006 17 254 11.3 32.2 0.00 0.08 0.03 64 1012.3
20260507171505 17 264 9.7 24.1 0.00 0.08 0.03 63 1012.3
20260507171217 17 274 9.7 33.8 0.00 0.08 0.03 62 1012.3
20260507170715 18 275 11.3 33.8 0.00 0.08 0.03 61 1012.3
20260507170218 18 276 9.7 27.4 0.00 0.08 0.03 61 1012.5
20260507165504 18 294 6.4 17.7 0.00 0.08 0.03 60 1012.4
20260507165006 18 287 6.4 17.7 0.00 0.08 0.03 60 1012.4
20260507164504 18 286 6.4 14.5 0.00 0.08 0.03 59 1012.4
20260507164004 18 306 8.0 17.7 0.00 0.08 0.03 58 1012.3
20260507163506 18 293 8.0 19.3 0.00 0.08 0.03 61 1012.4
20260507163005 18 284 8.0 19.3 0.00 0.08 0.03 59 1012.3
20260507162504 18 302 8.0 17.7 0.00 0.08 0.03 60 1012.1
20260507162007 18 316 6.4 17.7 0.00 0.08 0.03 66 1012.1
20260507161506 18 311 4.8 12.9 0.00 0.08 0.03 66 1012.1
20260507161004 18 318 3.2 12.9 0.00 0.08 0.03 66 1012.2
20260507160716 18 330 3.2 9.7 0.00 0.08 0.03 68 1012.1
20260507160005 18 294 3.2 8.0 0.00 0.08 0.03 67 1012.0
20260507155504 18 294 3.2 8.0 0.00 0.08 0.03 66 1012.1
20260507155220 18 295 3.2 6.4 0.00 0.08 0.03 66 1012.1
20260507154718 18 276 3.2 11.3 0.00 0.08 0.03 65 1012.0
20260507154005 19 305 4.8 14.5 0.00 0.08 0.03 65 1011.7
20260507153506 19 324 6.4 14.5 0.00 0.08 0.03 66 1011.8
20260507153217 18 324 6.4 14.5 0.00 0.08 0.03 65 1011.8
20260507152504 18 307 1.6 11.3 0.00 0.08 0.03 70 1011.9
20260507152218 18 316 3.2 6.4 0.00 0.08 0.03 71 1012.0
20260507151504 18 339 6.4 12.9 0.00 0.08 0.03 67 1011.7
20260507151005 18 333 4.8 12.9 0.00 0.08 0.03 67 1011.8
20260507150504 18 303 1.6 8.0 0.00 0.08 0.03 68 1011.8
20260507150219 18 301 1.6 8.0 0.00 0.08 0.03 68 1011.8
20260507145504 18 325 3.2 11.3 0.00 0.08 0.03 66 1011.9
20260507145004 18 322 1.6 8.0 0.00 0.08 0.03 66 1011.9
20260507144504 19 317 1.6 6.4 0.00 0.08 0.03 66 1011.8
20260507144006 19 14 3.2 8.0 0.00 0.08 0.03 65 1011.8
20260507143504 19 357 4.8 9.7 0.00 0.08 0.03 65 1011.8
20260507143006 18 308 3.2 9.7 0.00 0.08 0.03 66 1011.8
20260507142504 18 293 3.2 11.3 0.00 0.08 0.03 65 1011.9
20260507142004 18 300 3.2 11.3 0.00 0.08 0.03 65 1011.8
20260507141716 19 278 3.2 8.0 0.00 0.08 0.03 64 1011.8
20260507141004 19 291 3.2 12.9 0.00 0.08 0.03 65 1012.0
20260507140504 19 298 3.2 11.3 0.00 0.08 0.03 65 1011.7
20260507140006 20 301 4.8 14.5 0.00 0.08 0.03 65 1012.0
20260507135504 19 297 6.4 14.5 0.00 0.08 0.03 63 1012.0
20260507135005 20 288 4.8 16.1 0.00 0.08 0.03 63 1011.9
20260507134504 20 296 4.8 16.1 0.00 0.08 0.03 62 1012.0
20260507134004 19 296 4.8 12.9 0.00 0.08 0.03 65 1011.9
20260507133504 19 273 3.2 12.9 0.00 0.08 0.03 65 1012.1
20260507133006 19 286 3.2 11.3 0.00 0.08 0.03 66 1012.0
20260507132716 19 302 3.2 11.3 0.00 0.08 0.03 68 1012.0
20260507132004 20 317 3.2 9.7 0.00 0.08 0.03 65 1012.1
20260507131717 20 303 3.2 9.7 0.00 0.08 0.03 64 1012.2
20260507131006 20 319 4.8 9.7 0.00 0.08 0.03 61 1012.3
20260507130504 20 308 4.8 16.1 0.00 0.08 0.03 63 1012.3
20260507130008 20 297 4.8 16.1 0.00 0.08 0.03 61 1012.3
20260507125504 20 300 3.2 9.7 0.00 0.08 0.03 62 1012.3
20260507125217 20 321 3.2 8.0 0.00 0.08 0.03 62 1012.3
20260507124504 20 309 3.2 11.3 0.00 0.08 0.03 58 1012.3
20260507124004 20 273 3.2 11.3 0.00 0.08 0.03 57 1012.4
20260507123504 20 295 3.2 9.7 0.00 0.08 0.03 56 1012.5
20260507123004 20 321 3.2 9.7 0.00 0.08 0.03 56 1012.4
20260507122716 20 334 1.6 8.0 0.00 0.08 0.03 59 1012.5
20260507122005 19 282 1.6 6.4 0.00 0.08 0.03 55 1012.5
20260507121504 19 228 1.6 6.4 0.00 0.08 0.03 55 1012.7
20260507121004 19 185 1.6 6.4 0.00 0.08 0.03 59 1012.8
20260507120504 19 190 1.6 8.0 0.00 0.08 0.03 60 1012.8
20260507120006 19 214 1.6 8.0 0.00 0.08 0.03 58 1012.9
20260507115504 19 269 3.2 8.0 0.00 0.08 0.03 61 1013.0
20260507115217 18 273 3.2 11.3 0.00 0.08 0.03 61 1013.0
20260507114504 18 259 4.8 11.3 0.00 0.08 0.03 57 1013.0
20260507114004 19 263 4.8 12.9 0.00 0.08 0.03 58 1013.1
20260507113505 19 279 4.8 12.9 0.00 0.10 0.03 58 1013.0
20260507113006 19 315 4.8 12.9 0.00 0.10 0.03 59 1013.1
20260507112504 19 314 4.8 12.9 0.00 0.10 0.03 60 1013.0
20260507112004 20 289 4.8 12.9 0.00 0.10 0.03 56 1013.0
20260507111506 20 278 4.8 12.9 0.00 0.10 0.03 58 1013.2
20260507111006 20 261 4.8 11.3 0.00 0.10 0.03 60 1013.2
20260507110504 19 270 4.8 11.3 0.00 0.10 0.03 58 1013.1
20260507110005 20 256 6.4 16.1 0.00 0.10 0.03 59 1013.1
20260507105507 19 251 8.0 16.1 0.00 0.10 0.03 57 1013.1
20260507105004 20 273 6.4 14.5 0.00 0.10 0.03 57 1013.1
20260507104716 20 268 4.8 14.5 0.00 0.10 0.03 57 1013.0
20260507104004 20 292 3.2 9.7 0.00 0.10 0.03 61 1013.1
20260507103504 19 275 3.2 11.3 0.00 0.10 0.03 58 1013.2
20260507103006 19 280 3.2 11.3 0.00 0.10 0.03 63 1013.2
20260507102718 19 295 4.8 17.7 0.00 0.10 0.03 63 1013.2
20260507102006 18 299 6.4 17.7 0.00 0.10 0.03 61 1013.4
20260507101504 18 305 6.4 16.1 0.00 0.10 0.03 61 1013.5
20260507101006 19 262 3.2 16.1 0.00 0.10 0.03 64 1013.5
20260507100504 19 223 3.2 8.0 0.00 0.10 0.03 62 1013.6
20260507100007 19 242 1.6 6.4 0.00 0.10 0.03 66 1013.6
20260507095504 18 249 1.6 9.7 0.00 0.10 0.03 69 1013.7
20260507095004 18 254 1.6 9.7 0.00 0.13 0.03 65 1013.8
20260507094504 18 268 1.6 6.4 0.00 0.13 0.03 67 1013.7
20260507094004 18 240 3.2 14.5 0.00 0.13 0.03 68 1013.9
20260507093717 18 246 3.2 14.5 0.00 0.13 0.03 66 1013.9
20260507093006 18 266 4.8 14.5 0.00 0.13 0.03 67 1013.9
20260507092504 18 252 3.2 12.9 0.00 0.13 0.03 68 1013.9
20260507092216 18 266 4.8 12.9 0.00 0.13 0.03 68 1013.9
20260507091504 18 293 4.8 16.1 0.00 0.13 0.03 69 1013.8
20260507091217 18 275 4.8 16.1 0.00 0.13 0.03 70 1013.8
20260507090503 18 300 4.8 14.5 0.00 0.13 0.03 68 1013.8
20260507090007 18 309 4.8 11.3 0.00 0.13 0.03 69 1013.7
20260507085506 17 317 3.2 11.3 0.00 0.13 0.03 74 1013.8
20260507085004 17 270 3.2 16.1 0.00 0.13 0.03 75 1013.7
20260507084504 17 202 4.8 16.1 0.00 0.13 0.03 75 1013.8
20260507084004 17 333 6.4 16.1 0.00 0.13 0.03 75 1013.7
20260507083504 16 315 4.8 12.9 0.00 0.13 0.03 77 1013.7
20260507083005 16 274 4.8 14.5 0.00 0.13 0.03 76 1013.9
20260507082714 16 290 4.8 14.5 0.00 0.13 0.03 77 1013.7
20260507082006 16 301 4.8 11.3 0.00 0.13 0.03 79 1013.8
20260507081504 16 297 3.2 11.3 0.00 0.13 0.03 79 1013.7
20260507081004 16 298 3.2 11.3 0.00 0.13 0.03 78 1013.6
20260507080504 15 304 1.6 8.0 0.00 0.13 0.03 80 1013.6
20260507080219 15 307 1.6 4.8 0.00 0.13 0.03 79 1013.6
20260507075504 15 303 1.6 4.8 0.00 0.13 0.03 80 1013.5
20260507075005 15 275 1.6 6.4 0.00 0.13 0.03 80 1013.4
20260507074718 15 277 1.6 6.4 0.00 0.13 0.03 81 1013.5
20260507074216 15 253 3.2 8.0 0.00 0.13 0.03 82 1013.4
20260507073713 15 257 3.2 9.7 0.00 0.13 0.03 82 1013.5
20260507073004 14 259 3.2 12.9 0.00 0.13 0.03 82 1013.4
20260507072506 14 253 3.2 12.9 0.00 0.13 0.03 81 1013.5
20260507072004 14 240 3.2 9.7 0.00 0.13 0.03 81 1013.4
20260507071504 14 239 4.8 9.7 0.00 0.13 0.03 81 1013.3
20260507071005 14 248 3.2 8.0 0.00 0.13 0.03 82 1013.2
20260507070505 14 254 3.2 9.7 0.00 0.15 0.03 82 1013.3
20260507070010 14 256 3.2 9.7 0.00 0.20 0.03 82 1013.3
20260507065505 14 245 4.8 12.9 0.00 0.20 0.03 82 1013.3
20260507065005 14 245 6.4 12.9 0.00 0.20 0.03 82 1013.2
20260507064504 14 249 4.8 11.3 0.00 0.20 0.03 81 1013.3
20260507064216 14 243 4.8 11.3 0.00 0.20 0.03 82 1013.2
20260507063504 14 232 3.2 9.7 0.00 0.20 0.03 83 1013.0
20260507063004 14 231 3.2 9.7 0.00 0.20 0.03 83 1013.0
20260507062506 13 228 3.2 11.3 0.00 0.20 0.03 84 1013.1
20260507062004 13 217 3.2 11.3 0.00 0.20 0.03 85 1012.9
20260507061504 13 92 1.6 8.0 0.00 0.20 0.03 88 1013.0
20260507061004 13 112 1.6 6.4 0.00 0.20 0.03 89 1012.9
20260507060504 13 141 1.6 6.4 0.00 0.20 0.03 90 1013.0
20260507060005 13 237 0.0 3.2 0.00 0.20 0.03 89 1013.0
20260507055504 13 131 0.0 1.6 0.00 0.20 0.03 89 1012.9
20260507055005 13 135 0.0 3.2 0.00 0.20 0.03 89 1013.1
20260507054504 13 314 1.6 8.0 0.00 0.20 0.03 89 1013.0
20260507054006 12 313 1.6 8.0 0.00 0.20 0.03 89 1012.9
20260507053504 12 311 1.6 8.0 0.00 0.20 0.03 91 1012.7
20260507053005 12 340 0.0 3.2 0.00 0.20 0.03 90 1012.8
20260507052505 12 314 1.6 4.8 0.00 0.20 0.03 90 1012.7
20260507052004 12 310 1.6 6.4 0.00 0.20 0.03 90 1012.7
20260507051506 12 309 1.6 6.4 0.00 0.20 0.03 91 1012.7
20260507051004 12 0 0.0 0.0 0.00 0.20 0.03 91 1012.7
20260507050504 12 0 0.0 0.0 0.00 0.20 0.03 91 1012.6
20260507050008 12 302 1.6 6.4 0.00 0.20 0.03 91 1012.5
20260507045504 12 315 1.6 8.0 0.00 0.20 0.03 91 1012.5
20260507045004 11 326 1.6 8.0 0.00 0.20 0.03 92 1012.4
20260507044504 11 0 0.0 0.0 0.00 0.20 0.03 92 1012.4
20260507044004 11 343 0.0 1.6 0.00 0.20 0.03 92 1012.4
20260507043504 11 352 0.0 1.6 0.00 0.20 0.03 92 1012.2
20260507043006 11 81 0.0 3.2 0.00 0.20 0.03 91 1012.3
20260507042504 11 84 0.0 3.2 0.00 0.20 0.03 92 1012.1
20260507042004 11 89 0.0 1.6 0.00 0.20 0.03 91 1012.1
20260507041504 12 325 1.6 4.8 0.00 0.20 0.03 91 1012.1
20260507041004 12 325 1.6 4.8 0.00 0.20 0.03 91 1012.0
20260507040504 12 324 0.0 4.8 0.00 0.20 0.03 91 1012.0
20260507040216 12 318 0.0 3.2 0.00 0.20 0.03 91 1012.1
20260507035504 12 322 1.6 6.4 0.00 0.20 0.03 90 1012.0
20260507035004 12 326 3.2 6.4 0.00 0.20 0.03 90 1012.1
20260507034504 12 338 1.6 6.4 0.00 0.20 0.03 90 1012.0
20260507034004 12 90 0.0 3.2 0.00 0.20 0.03 90 1012.0
20260507033504 12 16 1.6 3.2 0.00 0.20 0.03 90 1012.1
20260507033005 12 13 1.6 3.2 0.00 0.20 0.03 90 1012.1
20260507032717 12 25 1.6 3.2 0.00 0.20 0.03 90 1012.0
20260507032005 12 347 3.2 6.4 0.00 0.20 0.03 90 1011.9
20260507031504 12 351 3.2 6.4 0.00 0.20 0.03 90 1012.0
20260507031006 12 3 1.6 3.2 0.00 0.20 0.03 89 1011.9
20260507030504 12 38 1.6 4.8 0.00 0.20 0.03 89 1011.8
20260507030004 12 159 3.2 9.7 0.00 0.20 0.03 89 1011.8
20260507025506 12 152 3.2 9.7 0.00 0.20 0.03 89 1011.9
20260507025004 12 344 1.6 8.0 0.00 0.20 0.03 90 1011.8
20260507024505 12 318 3.2 8.0 0.00 0.20 0.03 89 1011.8
20260507024004 12 305 1.6 8.0 0.00 0.20 0.03 90 1011.8
20260507023504 12 146 1.6 8.0 0.00 0.20 0.03 90 1012.0
20260507023215 12 112 1.6 8.0 0.00 0.20 0.03 90 1011.9
20260507022504 12 11 1.6 3.2 0.00 0.20 0.03 90 1011.9
20260507022005 12 330 1.6 4.8 0.00 0.20 0.03 90 1011.9
20260507021504 12 2 1.6 4.8 0.00 0.20 0.03 90 1011.9
20260507021004 12 39 0.0 1.6 0.00 0.20 0.03 89 1011.9
20260507020504 12 287 0.0 1.6 0.00 0.20 0.03 90 1011.9
20260507020006 12 117 0.0 3.2 0.00 0.20 0.03 89 1011.9
20260507015504 12 23 0.0 3.2 0.00 0.20 0.03 89 1012.0
20260507015004 12 337 0.0 1.6 0.00 0.20 0.03 88 1012.1
20260507014504 12 23 0.0 4.8 0.00 0.20 0.03 87 1012.0
20260507014006 12 311 1.6 4.8 0.00 0.20 0.03 86 1011.9
20260507013504 13 303 1.6 11.3 0.00 0.20 0.03 86 1011.8
20260507013004 13 299 3.2 11.3 0.00 0.20 0.03 86 1011.9
20260507012504 13 228 4.8 20.9 0.00 0.20 0.03 86 1011.9
20260507012006 13 188 4.8 20.9 0.00 0.20 0.03 86 1011.8
20260507011504 13 182 4.8 14.5 0.00 0.20 0.03 86 1011.8
20260507011004 12 118 3.2 14.5 0.00 0.20 0.03 86 1011.8
20260507010504 12 118 1.6 6.4 0.00 0.20 0.03 86 1011.7
20260507010005 13 120 1.6 6.4 0.00 0.20 0.03 85 1011.7
20260507005504 12 100 1.6 4.8 0.00 0.20 0.03 87 1011.7
20260507005006 12 335 1.6 6.4 0.00 0.20 0.03 88 1011.9
20260507004504 13 349 1.6 6.4 0.00 0.20 0.03 87 1011.9
20260507004006 13 145 1.6 4.8 0.00 0.20 0.03 86 1012.0
20260507003504 13 124 1.6 4.8 0.00 0.20 0.03 85 1012.1
20260507003004 13 342 1.6 4.8 0.00 0.20 0.03 85 1012.1
20260507002504 13 287 3.2 14.5 0.03 0.20 0.03 85 1012.1
20260507002004 13 287 3.2 14.5 0.03 0.20 0.03 85 1012.2
20260507001715 13 288 1.6 14.5 0.03 0.20 0.03 86 1012.3
20260507001006 13 330 1.6 4.8 0.03 0.20 0.03 88 1012.3
20260507000504 13 315 1.6 6.4 0.03 0.20 0.03 87 1012.2
20260507000005 13 304 1.6 6.4 0.03 0.20 0.03 87 1012.2
20260506235504 13 329 3.2 9.7 0.03 0.20 0.03 88 1012.1
20260506235215 13 324 3.2 9.7 0.03 0.20 0.03 88 1012.2
20260506234506 13 276 1.6 8.0 0.03 0.20 0.03 88 1012.1
20260506234004 13 316 1.6 8.0 0.03 0.20 0.03 86 1011.9
20260506233504 13 312 3.2 12.9 0.03 0.20 0.03 86 1011.9
20260506233004 13 289 3.2 12.9 0.03 0.20 0.03 85 1012.2
20260506232504 13 274 3.2 9.7 0.00 0.18 0.00 85 1012.3
20260506232004 13 278 4.8 12.9 0.00 0.18 0.00 85 1012.2
20260506231504 13 274 4.8 16.1 0.00 0.18 0.00 84 1012.2
20260506231005 13 299 4.8 19.3 0.00 0.18 0.00 85 1012.4
20260506230506 13 309 4.8 19.3 0.00 0.18 0.00 85 1012.5
20260506230004 13 321 4.8 16.1 0.00 0.18 0.00 85 1012.3
20260506225504 13 40 3.2 16.1 0.00 0.18 0.00 86 1012.2
20260506225007 13 139 1.6 4.8 0.00 0.18 0.00 87 1012.1
20260506224505 13 162 1.6 4.8 0.00 0.18 0.00 89 1012.1
20260506224004 13 81 1.6 8.0 0.00 0.18 0.00 88 1012.0
20260506223504 13 27 1.6 8.0 0.00 0.18 0.00 88 1012.0
20260506223004 13 320 3.2 14.5 0.00 0.18 0.00 88 1011.9
20260506222504 13 321 1.6 14.5 0.00 0.18 0.00 88 1011.9
20260506222004 13 7 0.0 8.0 0.00 0.18 0.00 89 1011.8
20260506221504 13 353 1.6 8.0 0.00 0.18 0.00 88 1011.7
20260506221004 13 335 1.6 4.8 0.00 0.18 0.00 88 1011.7
20260506220808 13 333 1.6 4.8 0.00 0.18 0.00 88 1011.7
20260506220504 13 308 1.6 6.4 0.00 0.18 0.00 88 1011.6
20260506215504 13 358 1.6 8.0 0.00 0.18 0.18 87 1011.6
20260506215004 13 8 1.6 4.8 0.03 0.18 0.18 87 1011.7
20260506214504 13 355 1.6 3.2 0.03 0.18 0.18 88 1011.7
20260506214004 13 256 1.6 9.7 0.03 0.18 0.18 87 1011.7
20260506213504 14 309 4.8 20.9 0.03 0.18 0.18 85 1011.6
20260506213218 14 318 6.4 20.9 0.03 0.18 0.18 85 1011.5
20260506212505 14 299 6.4 16.1 0.03 0.18 0.18 85 1011.4
20260506212004 14 282 6.4 14.5 0.03 0.18 0.18 85 1011.5
20260506211504 14 276 3.2 12.9 0.03 0.18 0.18 87 1011.6
20260506211006 14 246 3.2 12.9 0.03 0.18 0.18 87 1011.5
20260506210504 14 267 3.2 12.9 0.03 0.18 0.18 86 1011.6
20260506210006 14 292 3.2 9.7 0.03 0.18 0.18 87 1011.4
20260506205504 15 263 3.2 11.3 0.03 0.18 0.18 86 1011.6
20260506205004 15 295 4.8 19.3 0.00 0.15 0.15 86 1011.5
20260506204504 15 304 6.4 22.5 0.00 0.15 0.15 85 1011.5
20260506204006 15 302 6.4 22.5 0.00 0.15 0.15 85 1011.2
20260506203506 14 304 4.8 17.7 0.00 0.15 0.15 86 1011.2
20260506203004 14 302 3.2 16.1 0.03 0.15 0.15 88 1011.1